16P/Brooks 2 (2021)

Japanese version
Home page
Updated on December 18, 2022

---------------------------------------------------------------------

* Profile

* Orbital Elements

Epoch 2021 July 5.0 TT = JDT 2459400.5
T 2021 Apr. 18.25051 TT                                 Rudenko
q   1.8781602            (2000.0)            P               Q
n   0.14102038     Peri.  245.18114     +0.91239228     -0.40785514
a   3.6555113      Node   138.86510     +0.39195212     +0.84623177
e   0.4862114      Incl.    3.01163     +0.11795704     +0.34284979
P   6.99
From 442 observations 2001 Oct. 22-2021 Sept. 13, mean residual 0".9.
     Nongravitational parameters A1 = +0.77, A2 = -0.2030.

* Magnitudes Graph

        m1 = 11.3 + 5 log d + 15.0 log r

---------------------------------------------------------------------

The orbital elements are published on M.P.E.C. 2021-S45.
The magnitudes graphs are made with Comet for Windows.

---------------------------------------------------------------------

Copyright(C) Seiichi Yoshida (comet@aerith.net). All rights reserved.